map of LCC home
Great Circle Mapper logo
LCC - Airport
Location
City:  Lecce, Apulia, Italy
Name:Galatina
ICAO / IATA:LIBN / LCC

Details
Type:Airport (Aerodrome, Airfield)
Use:Military
Latitude:4014'21"N (40.239228)
Longitude:1808'00"E (18.133325)
Datum:WGS 1984
Elevation:156 ft (48 m)
Variation:3.61E (WMM2015 magnetic declination)
0.10 annual change
Runways:1
Longest:6637 × 197 ft (2023 × 60 m), paved

Time
Time Zone:UTC+1 (DST+2)
Local Time:

Weather
METAR:LIBN 261755Z 08006KT 6000 -RA BKN050 13/13 Q1006 RMK OVC OVC070 VIS MIN 6000 WIND THR14 08006KT WHT

Related Locations
Nearby:
Farthest:CHT: 11651 mi / 18751 km
Waitangi [Tuuta], Chatham Islands, NZ

Find:

   beyond  
but within

Other Information
Maps:
NOTAMs:
Links:
Sources:

  
flag of Italy
flag of Apulia
  

Sectional Chart

Flight Planning
at skyvector.com

Satellite Image

Google Maps Satellite View

 

Copyright © 2004-2015 Karl L. Swartz. All rights reserved.
The Great Circle Mapper name and logo are trademarks of the Great Circle Mapper.
All other trademarks mentioned herein belong to their respective owners.
Please see credits for attibutions and further copyright information.

  Follow gcmap on Facebook Follow gcmap on Twitter Follow gcmap on Google+

hCard Microformat

Geo Microformat